Time,TemperatureF,DewpointF,PressureIn,WindDirection,WindDirectionDegrees,WindSpeedMPH,WindSpeedGustMPH,Humidity,HourlyPrecipIn,Conditions,Clouds,dailyrainin,SoftwareType,DateUTC
2013-08-04 00:22:00,79.0,76.0,-100.00,WSW,243,6.0,-999.0,91,0.00,,,-99.99,,2013-08-04 04:22:00,
2013-08-04 00:32:00,79.0,76.0,-100.00,WSW,243,6.0,-999.0,91,0.00,,,-99.99,,2013-08-04 04:32:00,
2013-08-04 00:42:00,79.0,76.0,-100.00,WSW,243,6.0,-999.0,91,0.00,,,-99.99,,2013-08-04 04:42:00,
2013-08-04 01:22:00,79.0,76.0,-100.00,WSW,253,4.0,-999.0,93,0.00,,,-99.99,,2013-08-04 05:22:00,
2013-08-04 01:32:00,79.0,76.0,-100.00,WSW,253,4.0,-999.0,93,0.00,,,-99.99,,2013-08-04 05:32:00,
2013-08-04 01:42:00,79.0,76.0,-100.00,WSW,253,4.0,-999.0,93,0.00,,,-99.99,,2013-08-04 05:42:00,
2013-08-04 02:22:00,77.0,76.0,-100.00,West,270,4.0,-999.0,95,0.00,,,-99.99,,2013-08-04 06:22:00,
2013-08-04 02:32:00,77.0,76.0,-100.00,West,270,4.0,-999.0,95,0.00,,,-99.99,,2013-08-04 06:32:00,
2013-08-04 02:43:00,77.0,76.0,-100.00,West,270,4.0,-999.0,95,0.00,,,-99.99,,2013-08-04 06:43:00,
2013-08-04 03:22:00,77.0,76.0,-100.00,West,281,5.0,-999.0,97,0.00,,,-99.99,,2013-08-04 07:22:00,
2013-08-04 03:33:00,77.0,76.0,-100.00,West,281,5.0,-999.0,97,0.00,,,-99.99,,2013-08-04 07:33:00,
2013-08-04 03:42:00,77.0,76.0,-100.00,West,281,5.0,-999.0,97,0.00,,,-99.99,,2013-08-04 07:42:00,
2013-08-04 04:23:00,76.0,75.0,-100.00,West,272,5.0,-999.0,98,0.00,,,-99.99,,2013-08-04 08:23:00,
2013-08-04 04:33:00,76.0,75.0,-100.00,West,272,5.0,-999.0,98,0.00,,,-99.99,,2013-08-04 08:33:00,
2013-08-04 04:43:00,76.0,75.0,-100.00,West,272,5.0,-999.0,98,0.00,,,-99.99,,2013-08-04 08:43:00,
2013-08-04 05:22:00,76.0,75.0,-100.00,West,264,4.0,-999.0,97,0.00,,,-99.99,,2013-08-04 09:22:00,
2013-08-04 05:32:00,76.0,75.0,-100.00,West,264,4.0,-999.0,97,0.00,,,-99.99,,2013-08-04 09:32:00,
2013-08-04 05:43:00,76.0,75.0,-100.00,West,264,4.0,-999.0,97,0.00,,,-99.99,,2013-08-04 09:43:00,
2013-08-04 06:22:00,75.0,74.0,-100.00,West,264,4.0,-999.0,97,0.00,,,-99.99,,2013-08-04 10:22:00,
2013-08-04 06:32:00,75.0,74.0,-100.00,West,264,4.0,-999.0,97,0.00,,,-99.99,,2013-08-04 10:32:00,
2013-08-04 06:43:00,75.0,74.0,-100.00,West,264,4.0,-999.0,97,0.00,,,-99.99,,2013-08-04 10:43:00,
2013-08-04 07:22:00,75.0,74.0,-100.00,West,279,4.0,-999.0,97,0.00,,,-99.99,,2013-08-04 11:22:00,
2013-08-04 07:32:00,75.0,74.0,-100.00,West,279,4.0,-999.0,97,0.00,,,-99.99,,2013-08-04 11:32:00,
2013-08-04 07:42:00,75.0,74.0,-100.00,West,279,4.0,-999.0,97,0.00,,,-99.99,,2013-08-04 11:42:00,
2013-08-04 08:22:00,77.0,75.0,-100.00,West,274,4.0,-999.0,95,0.00,,,-99.99,,2013-08-04 12:22:00,
2013-08-04 08:33:00,77.0,75.0,-100.00,West,274,4.0,-999.0,95,0.00,,,-99.99,,2013-08-04 12:33:00,
2013-08-04 08:43:00,77.0,75.0,-100.00,West,274,4.0,-999.0,95,0.00,,,-99.99,,2013-08-04 12:43:00,
2013-08-04 09:22:00,79.0,75.0,-100.00,West,272,5.0,-999.0,86,0.00,,,-99.99,,2013-08-04 13:22:00,
2013-08-04 09:32:00,79.0,75.0,-100.00,West,272,5.0,-999.0,86,0.00,,,-99.99,,2013-08-04 13:32:00,
2013-08-04 09:43:00,79.0,75.0,-100.00,West,272,5.0,-999.0,86,0.00,,,-99.99,,2013-08-04 13:43:00,
2013-08-04 10:22:00,81.0,74.0,-100.00,WNW,288,5.0,-999.0,78,0.00,,,-99.99,,2013-08-04 14:22:00,
2013-08-04 10:33:00,81.0,74.0,-100.00,WNW,288,5.0,-999.0,78,0.00,,,-99.99,,2013-08-04 14:33:00,
2013-08-04 10:43:00,81.0,74.0,-100.00,WNW,288,5.0,-999.0,78,0.00,,,-99.99,,2013-08-04 14:43:00,
2013-08-04 11:22:00,84.0,74.0,-100.00,WNW,297,4.0,-999.0,73,0.00,,,-99.99,,2013-08-04 15:22:00,
2013-08-04 11:32:00,84.0,74.0,-100.00,WNW,297,4.0,-999.0,73,0.00,,,-99.99,,2013-08-04 15:32:00,
2013-08-04 11:43:00,84.0,74.0,-100.00,WNW,297,4.0,-999.0,73,0.00,,,-99.99,,2013-08-04 15:43:00,
2013-08-04 12:22:00,86.0,74.0,-100.00,NNW,333,4.0,-999.0,68,0.00,,,-99.99,,2013-08-04 16:22:00,
2013-08-04 12:33:00,86.0,74.0,-100.00,NNW,333,4.0,-999.0,68,0.00,,,-99.99,,2013-08-04 16:33:00,
2013-08-04 12:42:00,86.0,74.0,-100.00,NNW,333,4.0,-999.0,68,0.00,,,-99.99,,2013-08-04 16:42:00,
2013-08-04 13:22:00,86.0,72.0,-100.00,WNW,302,4.0,-999.0,62,0.00,,,-99.99,,2013-08-04 17:22:00,
2013-08-04 13:32:00,86.0,72.0,-100.00,WNW,302,4.0,-999.0,62,0.00,,,-99.99,,2013-08-04 17:32:00,
2013-08-04 13:43:00,86.0,72.0,-100.00,WNW,302,4.0,-999.0,62,0.00,,,-99.99,,2013-08-04 17:43:00,
2013-08-04 14:23:00,88.0,71.0,-100.00,West,262,7.0,-999.0,56,0.00,,,-99.99,,2013-08-04 18:23:00,
2013-08-04 14:33:00,88.0,71.0,-100.00,West,262,7.0,-999.0,56,0.00,,,-99.99,,2013-08-04 18:33:00,
2013-08-04 14:43:00,88.0,71.0,-100.00,West,262,7.0,-999.0,56,0.00,,,-99.99,,2013-08-04 18:43:00,
2013-08-04 15:22:00,89.0,68.0,-100.00,NW,304,6.0,-999.0,50,0.00,,,-99.99,,2013-08-04 19:22:00,
2013-08-04 15:32:00,89.0,68.0,-100.00,NW,304,6.0,-999.0,50,0.00,,,-99.99,,2013-08-04 19:32:00,
2013-08-04 15:44:00,89.0,68.0,-100.00,NW,304,6.0,-999.0,50,0.00,,,-99.99,,2013-08-04 19:44:00,
2013-08-04 16:22:00,90.0,69.0,-100.00,WNW,297,6.0,-999.0,50,0.00,,,-99.99,,2013-08-04 20:22:00,
2013-08-04 16:33:00,90.0,69.0,-100.00,WNW,297,6.0,-999.0,50,0.00,,,-99.99,,2013-08-04 20:33:00,
2013-08-04 16:42:00,90.0,69.0,-100.00,WNW,297,6.0,-999.0,50,0.00,,,-99.99,,2013-08-04 20:42:00,
2013-08-04 17:22:00,89.0,72.0,-100.00,NW,324,7.0,-999.0,57,0.00,,,-99.99,,2013-08-04 21:22:00,
2013-08-04 17:32:00,89.0,72.0,-100.00,NW,324,7.0,-999.0,57,0.00,,,-99.99,,2013-08-04 21:32:00,
2013-08-04 17:43:00,89.0,72.0,-100.00,NW,324,7.0,-999.0,57,0.00,,,-99.99,,2013-08-04 21:43:00,
2013-08-04 18:22:00,88.0,74.0,-100.00,North,4,7.0,-999.0,62,0.00,,,-99.99,,2013-08-04 22:22:00,
2013-08-04 18:32:00,88.0,74.0,-100.00,North,4,7.0,-999.0,62,0.00,,,-99.99,,2013-08-04 22:32:00,
2013-08-04 18:43:00,88.0,74.0,-100.00,North,4,7.0,-999.0,62,0.00,,,-99.99,,2013-08-04 22:43:00,
2013-08-04 19:23:00,87.0,72.0,-100.00,NNE,17,7.0,-999.0,61,0.00,,,-99.99,,2013-08-04 23:23:00,
2013-08-04 19:32:00,87.0,72.0,-100.00,NNE,17,7.0,-999.0,61,0.00,,,-99.99,,2013-08-04 23:32:00,
2013-08-04 19:43:00,87.0,72.0,-100.00,NNE,17,7.0,-999.0,61,0.00,,,-99.99,,2013-08-04 23:43:00,
2013-08-04 20:22:00,85.0,73.0,-100.00,NE,48,10.0,-999.0,68,0.00,,,-99.99,,2013-08-05 00:22:00,
2013-08-04 20:33:00,85.0,73.0,-100.00,NE,48,10.0,-999.0,68,0.00,,,-99.99,,2013-08-05 00:33:00,
2013-08-04 20:42:00,85.0,73.0,-100.00,NE,48,10.0,-999.0,68,0.00,,,-99.99,,2013-08-05 00:42:00,
2013-08-04 21:22:00,83.0,73.0,-100.00,ENE,66,13.0,-999.0,72,0.00,,,-99.99,,2013-08-05 01:22:00,
2013-08-04 21:33:00,83.0,73.0,-100.00,ENE,66,13.0,-999.0,72,0.00,,,-99.99,,2013-08-05 01:33:00,
2013-08-04 21:43:00,83.0,73.0,-100.00,ENE,66,13.0,-999.0,72,0.00,,,-99.99,,2013-08-05 01:43:00,
2013-08-04 22:22:00,80.0,76.0,-100.00,East,95,11.0,-999.0,87,0.00,,,-99.99,,2013-08-05 02:22:00,
2013-08-04 22:33:00,80.0,76.0,-100.00,East,95,11.0,-999.0,87,0.00,,,-99.99,,2013-08-05 02:33:00,
2013-08-04 22:43:00,80.0,76.0,-100.00,East,95,11.0,-999.0,87,0.00,,,-99.99,,2013-08-05 02:43:00,
2013-08-04 23:22:00,80.0,75.0,-100.00,East,86,9.0,-999.0,86,0.00,,,-99.99,,2013-08-05 03:22:00,
2013-08-04 23:32:00,80.0,75.0,-100.00,East,86,9.0,-999.0,86,0.00,,,-99.99,,2013-08-05 03:32:00,
2013-08-04 23:42:00,80.0,75.0,-100.00,East,86,9.0,-999.0,86,0.00,,,-99.99,,2013-08-05 03:42:00,